Date String (YYYY-MM-DD hh:mm:ss) UTC,Instrument flags,absolute air pressure of the measurement (hPa),sample flow rate (lpm),inlet stack bypass flow (lpm),air temperature of the measurement (°C),ambient temperature measured by the external sensor (°C),aerosol sample conditioner tube jacket temperature (°C),OPC LED temperature (°C),internal box temperature (°C),relative humidity of the measurement (%),span deviation,mass concentration of particles derived from Lorenz-Mie calculation of OPC scattering (μg/m³),mass concentration of particles derived from Lorenz-Mie calculation of OPC scattering (μg/m³),mass concentration of particles derived from Lorenz-Mie calculation of OPC scattering (μg/m³)
DateTimeUTC,F1_M11,P_M11,Q1_M11,Q2_M11,T1_M11,T2_M11,T3_M11,T4_M11,T5_M11,U1_M11,ZSPAN_M11,X0_M11,X2_M11,X1_M11
2024-03-04 02:00:00,SystemResetWarning,0817.1,5.00,000.00,018.7,018.0,000.0,027.1,020.4,16.5,0000.0,0004.63,0000.60,0000.29
2024-03-04 02:01:00,SystemResetWarning,0817.2,5.00,000.00,018.7,018.0,000.0,027.1,020.3,16.5,0000.0,0006.19,0000.59,0000.30
2024-03-04 02:02:00,SystemResetWarning,0817.1,5.00,000.00,018.7,018.0,000.0,027.1,020.3,16.6,0000.0,0006.23,0000.61,0000.31
2024-03-04 02:03:00,SystemResetWarning,0817.1,5.01,000.00,018.7,018.0,000.0,027.1,020.3,16.7,0000.0,0005.08,0000.62,0000.32
2024-03-04 02:04:00,SystemResetWarning,0817.1,5.00,000.00,018.7,018.0,000.0,027.1,020.3,16.8,0000.0,0003.70,0000.63,0000.33
2024-03-04 02:05:00,SystemResetWarning,0817.1,5.00,000.00,018.7,018.0,000.0,027.1,020.3,16.8,0000.0,0003.47,0000.64,0000.33
2024-03-04 02:06:00,SystemResetWarning,0817.1,5.00,000.00,018.7,018.0,000.0,027.1,020.4,16.9,0000.0,0004.58,0000.62,0000.33
2024-03-04 02:07:00,SystemResetWarning,0817.1,5.01,000.00,018.7,018.0,000.0,027.1,020.4,16.9,0000.0,0006.17,0000.67,0000.35
2024-03-04 02:08:00,SystemResetWarning,0817.1,5.00,000.00,018.7,018.0,000.0,027.1,020.4,17.0,0000.0,0007.66,0000.74,0000.38
2024-03-04 02:09:00,SystemResetWarning,0817.1,5.00,000.00,018.7,018.0,000.0,027.1,020.3,17.1,0000.0,0008.52,0000.79,0000.40
2024-03-04 02:10:00,SystemResetWarning,0817.1,5.00,000.00,018.7,018.0,000.0,027.1,020.4,17.3,0000.0,0009.67,0000.88,0000.42
2024-03-04 02:11:00,SystemResetWarning,0817.1,4.99,000.00,018.7,018.0,000.0,027.1,020.4,17.4,0000.0,0010.90,0000.98,0000.44
2024-03-04 02:12:00,SystemResetWarning,0817.2,5.00,000.00,018.7,018.0,000.0,027.1,020.4,17.5,0000.0,0010.19,0001.05,0000.46
2024-03-04 02:13:00,SystemResetWarning,0817.3,5.01,000.00,018.6,017.9,000.0,027.1,020.3,17.5,0000.0,0010.09,0001.07,0000.47
2024-03-04 02:14:00,SystemResetWarning,0817.3,5.01,000.00,018.6,017.9,000.0,027.1,020.3,17.5,0000.0,0010.49,0001.12,0000.48
2024-03-04 02:15:00,SystemResetWarning,0817.3,5.00,000.00,018.6,017.9,000.0,027.1,020.3,17.6,0000.0,0011.20,0001.14,0000.49
2024-03-04 02:16:00,SystemResetWarning,0817.3,4.99,000.00,018.6,017.9,000.0,027.1,020.3,17.6,0000.0,0012.00,0001.21,0000.51
2024-03-04 02:17:00,SystemResetWarning,0817.4,4.99,000.00,018.6,017.9,000.0,027.1,020.3,17.6,0000.0,0011.78,0001.31,0000.53
2024-03-04 02:18:00,SystemResetWarning,0817.3,5.00,000.00,018.6,017.9,000.0,027.1,020.3,17.6,0000.0,0012.21,0001.41,0000.53
2024-03-04 02:19:00,SystemResetWarning,0817.4,5.00,000.00,018.6,017.9,000.0,027.1,020.3,17.6,0000.0,0012.47,0001.43,0000.53
2024-03-04 02:20:00,SystemResetWarning,0817.4,5.01,000.00,018.6,017.9,000.0,027.1,020.3,17.5,0000.0,0013.49,0001.51,0000.54
2024-03-04 02:21:00,SystemResetWarning,0817.4,5.00,000.00,018.6,017.9,000.0,027.1,020.3,17.5,0000.0,0013.21,0001.50,0000.54
2024-03-04 02:22:00,SystemResetWarning,0817.5,5.01,000.00,018.6,017.9,000.0,027.1,020.3,17.4,0000.0,0011.92,0001.43,0000.55
2024-03-04 02:23:00,SystemResetWarning,0817.5,5.00,000.00,018.6,017.9,000.0,027.1,020.3,17.4,0000.0,0012.35,0001.50,0000.55
2024-03-04 02:24:00,SystemResetWarning,0817.4,4.99,000.00,018.6,017.9,000.0,027.1,020.3,17.2,0000.0,0012.92,0001.57,0000.56
2024-03-04 02:25:00,SystemResetWarning,0817.5,5.00,000.00,018.6,017.9,000.0,027.1,020.3,16.9,0000.0,0013.82,0001.62,0000.56
2024-03-04 02:26:00,SystemResetWarning,0817.6,4.99,000.00,018.6,017.9,000.0,027.1,020.3,16.6,0000.0,0013.54,0001.65,0000.58
2024-03-04 02:27:00,SystemResetWarning,0817.6,5.00,000.00,018.6,017.9,000.0,027.1,020.3,16.6,0000.0,0012.73,0001.64,0000.57
2024-03-04 02:28:00,SystemResetWarning,0817.6,5.00,000.00,018.6,017.9,000.0,027.1,020.3,16.7,0000.0,0012.46,0001.59,0000.56
2024-03-04 02:29:00,SystemResetWarning,0817.7,5.01,000.00,018.6,017.9,000.0,027.1,020.3,16.5,0000.0,0011.62,0001.52,0000.55
2024-03-04 02:30:00,SystemResetWarning,0817.8,5.01,000.00,018.6,017.9,000.0,027.1,020.3,16.5,0000.0,0010.28,0001.50,0000.55
2024-03-04 02:31:00,SystemResetWarning,0817.8,5.00,000.00,018.6,017.9,000.0,027.1,020.3,16.4,0000.0,0009.96,0001.42,0000.55
2024-03-04 02:32:00,SystemResetWarning,0817.8,4.99,000.00,018.6,017.9,000.0,027.1,020.3,16.4,0000.0,0009.82,0001.37,0000.56
2024-03-04 02:33:00,SystemResetWarning,0817.8,4.99,000.00,018.6,017.9,000.0,027.1,020.3,16.4,0000.0,0009.55,0001.36,0000.55
2024-03-04 02:34:00,SystemResetWarning,0817.9,5.00,000.00,018.6,017.9,000.0,027.1,020.3,16.4,0000.0,0009.11,0001.26,0000.55
2024-03-04 02:35:00,SystemResetWarning,0817.9,5.00,000.00,018.6,017.9,000.0,027.1,020.3,16.4,0000.0,0008.89,0001.17,0000.55
2024-03-04 02:36:00,SystemResetWarning,0818.0,5.00,000.00,018.6,017.9,000.0,027.1,020.3,16.5,0000.0,0008.27,0001.08,0000.55
2024-03-04 02:37:00,SystemResetWarning,0818.0,5.00,000.00,018.6,017.9,000.0,027.1,020.3,16.6,0000.0,0007.61,0001.02,0000.54
2024-03-04 02:38:00,SystemResetWarning,0817.9,5.01,000.00,018.6,017.9,000.0,027.1,020.3,16.6,0000.0,0007.57,0001.02,0000.55
2024-03-04 02:39:00,SystemResetWarning,0818.0,5.01,000.00,018.6,017.9,000.0,027.1,020.3,16.6,0000.0,0008.39,0001.10,0000.56
2024-03-04 02:40:00,SystemResetWarning,0818.0,5.00,000.00,018.6,017.9,000.0,027.1,020.3,16.8,0000.0,0008.98,0001.12,0000.58
2024-03-04 02:41:00,SystemResetWarning,0818.0,4.99,000.00,018.6,017.9,000.0,027.1,020.3,17.1,0000.0,0008.92,0001.07,0000.59
2024-03-04 02:42:00,SystemResetWarning,0818.0,5.00,000.00,018.6,017.9,000.0,027.1,020.3,17.3,0000.0,0007.89,0001.03,0000.58
2024-03-04 02:43:00,SystemResetWarning,0818.0,5.00,000.00,018.6,017.9,000.0,027.1,020.3,17.4,0000.0,0006.60,0001.01,0000.57
2024-03-04 02:44:00,SystemResetWarning,0818.0,5.00,000.00,018.6,017.9,000.0,027.1,020.3,17.2,0000.0,0006.52,0000.97,0000.56
2024-03-04 02:45:00,SystemResetWarning,0818.0,5.00,000.00,018.6,017.9,000.0,027.1,020.3,17.2,0000.0,0006.88,0000.98,0000.57
2024-03-04 02:46:00,SystemResetWarning,0818.0,5.02,000.00,018.6,017.8,000.0,027.1,020.3,17.3,0000.0,0006.84,0001.00,0000.57
2024-03-04 02:47:00,SystemResetWarning,0818.0,5.00,000.00,018.6,017.8,000.0,027.1,020.2,17.4,0000.0,0006.43,0000.99,0000.56
2024-03-04 02:48:00,SystemResetWarning,0818.1,4.99,000.00,018.6,017.8,000.0,027.1,020.2,17.4,0000.0,0006.60,0000.97,0000.55
2024-03-04 02:49:00,SystemResetWarning,0818.0,4.99,000.00,018.5,017.7,000.0,027.0,020.2,17.4,0000.0,0007.17,0000.99,0000.55
2024-03-04 02:50:00,SystemResetWarning,0818.0,5.01,000.00,018.5,017.7,000.0,027.0,020.2,17.4,0000.0,0007.23,0000.97,0000.55
2024-03-04 02:51:00,SystemResetWarning,0818.1,5.01,000.00,018.5,017.7,000.0,027.0,020.1,17.4,0000.0,0005.83,0000.94,0000.55
2024-03-04 02:52:00,SystemResetWarning,0818.2,5.01,000.00,018.5,017.7,000.0,027.0,020.0,17.2,0000.0,0005.70,0000.95,0000.55
2024-03-04 02:53:00,SystemResetWarning,0818.3,5.00,000.00,018.4,017.7,000.0,027.0,020.0,17.1,0000.0,0005.52,0000.98,0000.55
2024-03-04 02:54:00,SystemResetWarning,0818.4,4.99,000.00,018.4,017.7,000.0,027.0,020.0,17.2,0000.0,0005.60,0001.02,0000.54
2024-03-04 02:55:00,SystemResetWarning,0818.4,4.99,000.00,018.4,017.6,000.0,027.0,020.0,17.4,0000.0,0005.85,0001.09,0000.55
2024-03-04 02:56:00,SystemResetWarning,0818.4,5.01,000.00,018.4,017.6,000.0,027.0,020.0,17.4,0000.0,0006.00,0001.11,0000.55
2024-03-04 02:57:00,SystemResetWarning,0818.4,5.01,000.00,018.4,017.6,000.0,027.1,020.0,17.4,0000.0,0006.59,0001.17,0000.55
2024-03-04 02:58:00,SystemResetWarning,0818.5,5.00,000.00,018.4,017.5,000.0,027.1,020.0,17.4,0000.0,0006.93,0001.20,0000.55
2024-03-04 02:59:00,SystemResetWarning,0818.5,4.99,000.00,018.4,017.5,000.0,027.0,020.0,17.3,0000.0,0007.21,0001.23,0000.55
